Theta_e
357 355 354 355 355 355 355 354 354 353 353 353 353 353 353 352 351 353 355 355 355 354 354 354 354 354 355 354 353 353 352 352 351 351 351 352 351 350 350 349 348 349 350 350 351 351 351 352 352 352 352 351 352 352 352 351 350 350 350 349 351 350 348 347 348 348 349 348 347 346 345 346 346 344 342 342 344 346 347 347 347 347 348 346 344
356 356 355 355 355 355 354 354 353 354 353 352 352 352 352 352 352 353 355 355 354 354 354 355 355 354 353 353 352 351 351 349 348 348 347 347 346 345 345 344 344 345 346 347 349 349 350 350 351 351 351 352 352 351 351 351 350 349 349 348 348 348 348 349 348 347 348 347 348 348 347 346 347 345 344 344 345 345 346 347 347 347 348 347 346
355 356 355 355 355 355 354 354 354 354 353 351 351 351 351 351 351 353 356 355 356 356 356 355 355 353 351 350 350 349 350 349 347 347 347 345 343 343 344 346 346 347 347 347 348 349 349 350 349 350 350 351 352 351 351 351 350 348 347 348 347 346 347 349 349 348 347 348 347 347 346 346 347 347 346 346 345 345 346 346 347 347 347 347 347
356 355 356 356 356 355 355 355 353 352 353 352 352 351 351 352 353 355 356 354 355 355 353 353 352 352 350 348 347 348 349 349 348 347 345 342 341 343 346 348 348 348 348 348 348 348 348 348 348 347 348 349 350 351 352 351 350 348 347 348 347 346 348 349 349 347 347 348 348 346 345 345 346 346 347 347 345 345 345 345 347 347 348 346 347
358 356 357 358 357 357 356 356 354 354 355 352 351 349 349 351 353 353 352 349 347 347 347 349 350 350 349 348 347 346 346 348 347 345 343 342 342 344 345 346 346 346 346 346 347 347 347 347 346 346 346 346 348 349 350 350 350 348 348 349 348 347 348 347 348 347 346 346 347 346 347 346 345 345 345 347 346 344 344 345 347 347 348 347 346
357 356 357 359 358 358 357 356 355 355 354 351 347 346 345 344 344 344 343 341 340 339 339 342 345 347 347 348 348 348 347 347 347 345 344 344 344 343 342 342 343 344 344 345 345 346 346 346 345 345 344 345 346 347 348 349 349 348 347 348 347 346 347 346 346 347 345 345 345 345 346 345 345 345 345 346 347 345 345 345 346 347 348 347 346
355 356 356 358 358 358 357 356 357 355 350 347 345 344 341 338 337 337 336 336 336 335 333 334 337 339 341 343 345 347 346 346 345 344 344 342 342 342 341 340 340 341 342 343 344 345 345 345 345 344 344 344 345 346 347 347 347 347 346 345 343 343 344 344 345 346 344 344 344 344 344 344 345 346 344 344 347 347 346 346 345 346 348 348 347
354 353 354 357 356 356 356 356 354 349 344 343 342 341 339 336 335 335 334 334 332 332 331 331 332 334 336 338 341 344 343 344 343 342 342 341 341 342 341 340 340 339 341 342 343 344 344 344 344 343 343 343 344 345 345 345 346 346 345 343 342 342 342 343 344 346 345 344 344 344 344 343 343 345 345 345 346 346 346 346 346 345 346 347 348
353 351 353 355 353 352 352 351 346 342 342 342 341 339 337 335 334 334 333 330 329 329 328 329 330 331 332 334 337 339 339 340 342 341 341 341 341 341 340 340 340 339 340 341 341 342 343 343 342 342 343 343 343 344 344 344 344 344 343 342 342 341 342 343 344 345 345 345 345 345 345 344 343 343 343 345 345 345 344 345 345 346 346 347 347
351 350 352 352 349 346 345 344 341 340 341 340 339 338 336 335 334 332 331 328 327 327 327 328 329 330 331 331 335 337 336 338 340 340 339 339 339 340 340 340 340 340 340 340 340 341 341 341 341 341 342 343 343 344 344 343 342 342 342 342 342 341 341 342 342 342 344 344 344 346 345 344 343 342 342 344 344 344 344 344 345 346 347 347 348
350 349 350 349 345 341 339 341 341 340 341 340 338 337 335 335 333 331 329 328 327 327 327 328 329 330 330 331 333 334 334 336 339 340 339 338 338 339 339 339 339 339 340 340 340 341 340 340 341 340 341 342 342 342 342 341 340 340 341 342 341 341 340 340 340 341 342 342 342 344 343 341 340 341 342 344 343 343 344 343 343 345 345 346 347
351 349 348 347 344 341 341 342 341 340 342 341 339 337 335 334 332 329 328 327 326 327 326 327 328 329 330 329 330 331 332 335 338 340 338 338 338 338 338 338 338 338 339 339 339 339 339 340 340 340 340 341 341 341 340 340 339 339 340 341 341 340 339 339 340 340 339 340 340 342 341 339 338 338 340 345 345 344 345 343 343 344 345 346 346
351 349 346 345 344 342 343 344 343 341 342 342 339 337 336 334 331 328 327 326 326 326 325 325 327 329 329 329 329 330 331 333 338 338 337 337 337 337 337 337 337 337 338 338 338 338 338 339 339 340 339 340 340 341 341 341 340 340 339 339 340 340 339 338 338 338 339 340 340 341 341 340 340 338 339 345 346 345 346 344 344 344 344 345 345
351 349 345 345 345 343 344 345 344 342 342 341 339 337 335 333 331 329 328 328 327 327 326 325 327 328 328 328 329 329 330 331 334 335 336 337 336 336 337 336 336 337 337 337 337 337 338 338 339 339 339 339 339 340 341 341 340 340 339 339 339 339 340 340 339 339 340 340 340 341 341 341 340 339 341 345 344 343 344 344 343 344 344 344 345
351 349 346 345 345 344 344 344 343 342 342 341 338 337 335 333 331 330 329 329 329 327 326 326 327 328 328 328 329 328 328 329 331 332 333 335 335 335 335 335 335 336 336 336 336 337 337 338 338 339 339 338 338 338 339 340 339 339 339 339 339 340 340 340 339 340 341 341 340 341 342 341 340 341 343 346 344 342 343 343 344 344 344 344 343
349 348 346 345 345 344 344 343 343 342 341 339 337 335 335 333 331 332 331 330 330 328 327 328 328 329 328 328 327 326 327 328 329 330 331 332 333 333 333 334 335 335 335 335 336 337 336 337 337 338 338 337 336 335 336 337 337 337 338 338 338 340 341 341 340 340 340 340 341 341 341 341 340 341 343 344 344 344 343 343 344 343 343 343 342
348 347 346 345 345 344 343 343 342 342 341 339 337 335 334 333 333 332 331 331 331 329 328 329 329 329 328 327 326 326 327 328 329 330 330 330 330 329 330 333 334 334 335 335 335 336 336 336 336 335 334 333 333 332 333 334 335 335 336 336 336 338 339 340 340 339 338 339 340 340 340 339 339 341 342 342 344 344 343 343 343 342 342 343 342
347 347 345 345 344 343 342 342 341 341 339 338 336 335 333 333 333 333 332 333 332 331 330 329 329 329 329 328 327 327 327 328 329 329 329 329 329 328 328 330 331 333 335 335 335 336 337 336 334 331 330 331 331 333 333 333 333 334 335 334 335 336 336 337 338 338 338 338 339 339 339 339 339 342 342 342 344 344 343 344 343 342 343 343 342
346 345 344 344 344 343 342 341 339 338 338 338 335 334 334 335 334 334 333 334 333 333 331 330 330 329 328 328 327 326 327 328 329 329 328 328 328 328 328 329 329 330 333 336 335 335 336 335 333 331 332 333 334 334 334 333 333 334 334 335 335 336 335 336 337 338 339 339 339 339 340 340 340 342 342 342 343 343 342 344 344 343 343 343 343
345 343 343 343 343 342 340 340 339 337 337 337 335 336 337 336 334 334 334 334 334 333 332 331 330 330 329 327 326 325 327 328 328 328 328 328 328 328 328 329 329 329 331 334 335 336 336 335 334 334 335 335 335 335 334 334 333 333 333 333 334 335 335 335 335 336 337 338 339 339 340 341 340 340 342 342 342 343 342 343 343 343 344 344 343
345 343 342 343 343 340 339 339 338 337 337 337 337 338 338 336 335 336 335 335 335 334 333 332 331 330 328 326 325 325 327 327 328 328 328 328 328 328 328 328 329 329 329 330 333 334 334 334 335 334 333 334 334 333 333 334 333 332 333 333 333 334 335 335 335 335 335 336 338 339 339 339 339 340 341 341 341 342 342 342 342 343 344 343 343
344 342 340 342 342 339 339 338 337 338 339 338 337 338 338 338 337 337 336 336 336 334 333 333 332 330 328 326 324 325 326 327 328 327 328 328 329 328 328 328 329 328 328 328 329 329 330 332 334 334 333 332 332 332 332 333 332 331 331 332 332 332 333 334 335 335 335 336 336 337 337 337 338 340 340 340 341 342 342 341 341 342 342 341 341
342 341 341 342 341 339 339 339 337 338 339 338 337 338 338 338 338 337 337 337 336 335 334 333 332 329 327 325 324 325 326 327 327 327 327 328 329 329 329 328 328 328 328 328 328 328 329 330 332 332 333 332 331 332 333 333 332 331 331 330 330 330 330 331 332 333 334 335 336 336 336 336 336 338 340 340 340 341 341 341 341 341 340 340 341
341 340 342 342 340 339 339 340 340 340 339 338 336 337 338 338 338 338 338 337 336 335 334 333 331 329 326 325 324 325 325 326 326 326 326 327 329 330 330 330 329 328 327 327 327 327 328 329 329 330 331 330 330 331 332 332 332 331 331 330 329 329 328 328 328 329 331 333 335 337 337 336 335 336 339 341 341 340 340 341 340 339 339 340 341
341 341 341 340 338 340 341 341 341 340 339 337 336 336 336 336 338 338 338 337 336 336 334 332 331 330 327 326 324 324 325 326 326 325 326 328 330 329 329 330 330 330 328 328 328 328 328 328 329 329 328 326 326 327 329 331 332 331 330 329 329 328 328 327 326 327 328 330 333 335 335 335 336 335 337 340 341 340 339 340 339 338 339 340 340
341 341 340 339 340 341 342 341 341 341 339 337 334 334 335 336 337 337 337 337 336 335 333 331 331 331 328 326 324 324 325 325 325 325 326 328 328 328 329 330 331 331 330 329 329 328 328 328 328 328 327 326 325 326 327 330 331 329 329 329 328 328 328 328 327 328 329 330 332 332 332 334 336 336 336 339 340 339 339 338 338 338 338 339 339
342 341 340 340 341 342 342 342 342 341 337 335 334 334 334 335 337 337 337 336 335 332 330 330 330 330 328 325 324 324 325 324 324 324 325 326 326 326 327 329 330 331 331 330 330 329 328 327 326 327 327 328 327 326 328 331 330 328 327 328 327 327 328 328 328 328 328 329 331 332 332 333 335 336 337 338 338 338 338 338 338 339 338 339 339
341 340 339 340 340 341 343 342 342 340 336 335 335 334 335 335 336 336 336 336 333 329 329 329 329 327 326 325 324 325 325 325 324 324 325 325 325 326 326 327 329 331 331 330 329 328 328 327 327 327 327 328 327 327 329 331 329 326 326 327 327 327 327 327 327 327 328 328 329 331 332 334 335 336 337 338 338 338 338 337 338 339 339 339 340
340 339 339 340 340 342 343 342 342 340 337 336 335 334 335 335 335 336 336 335 331 327 327 328 327 327 325 325 325 325 325 325 325 325 325 325 325 326 326 327 328 330 330 329 327 326 326 326 327 327 327 328 327 327 328 328 326 325 325 327 327 327 326 327 326 327 328 328 329 330 331 333 335 335 336 336 338 338 338 339 340 340 340 340 340
339 339 339 340 340 342 343 343 343 341 338 338 336 335 335 335 336 336 335 333 330 326 325 325 326 326 325 325 324 324 325 325 325 325 325 325 325 325 326 327 329 329 328 326 324 324 325 326 327 327 328 328 328 327 327 326 325 325 326 327 327 325 325 326 326 326 327 327 327 329 331 332 333 334 335 336 336 337 338 339 339 338 338 339 339
339 339 339 339 340 342 343 343 343 341 338 338 336 335 335 335 336 337 335 332 329 325 324 324 325 325 325 326 324 324 325 325 325 325 324 324 324 325 326 328 328 327 325 324 324 324 326 327 327 328 327 329 330 329 327 325 324 325 327 327 326 324 325 325 325 325 325 324 325 328 331 332 333 333 334 335 335 336 336 337 337 338 338 338 339
339 340 340 339 339 341 343 343 343 341 338 337 336 335 334 335 335 334 332 331 329 326 324 324 325 325 325 325 325 325 325 326 326 325 323 322 322 325 327 328 328 326 324 324 324 325 326 326 328 328 327 329 331 330 327 325 324 325 327 327 324 323 324 324 323 323 322 322 323 326 329 332 333 334 334 335 335 335 335 335 336 336 337 338 339
340 340 339 339 340 340 342 343 341 339 337 336 335 334 333 333 332 331 330 330 329 327 325 324 324 325 325 326 326 326 326 327 326 324 323 322 321 324 327 328 327 326 324 324 325 325 325 324 325 327 326 329 330 329 328 326 325 325 327 327 324 322 322 323 322 321 320 320 322 323 325 327 330 332 334 335 336 337 336 336 335 336 336 337 338
340 340 339 340 341 341 341 341 338 336 335 335 334 333 332 332 331 329 328 328 328 328 326 325 325 325 325 326 326 326 327 327 326 324 323 322 321 323 325 325 325 324 323 324 325 325 324 323 323 323 324 326 329 328 328 327 326 327 328 328 325 322 321 321 321 321 320 320 320 321 322 324 326 327 329 331 334 336 337 337 337 336 336 336 336
339 339 339 341 342 342 341 339 337 335 335 335 333 332 332 331 330 329 328 327 327 327 327 327 326 326 326 326 326 326 327 326 325 324 323 321 321 323 324 324 323 323 323 324 325 325 324 323 322 321 322 323 326 327 328 327 326 328 328 327 327 324 321 321 321 321 320 319 319 320 321 321 322 324 325 326 328 331 334 337 338 337 336 336 336
340 340 341 342 341 340 339 337 335 334 334 335 333 331 332 332 330 329 329 327 327 328 328 328 328 327 327 327 327 327 327 326 325 324 322 320 321 323 323 323 322 321 323 325 325 325 324 323 323 321 322 324 324 326 328 327 326 327 327 328 328 326 323 322 322 322 322 321 320 319 319 320 320 321 323 325 326 327 329 333 337 338 338 337 336
340 340 340 340 337 336 336 335 334 334 334 334 333 331 331 331 330 330 329 328 328 329 329 329 329 329 329 328 328 327 327 327 327 324 322 320 320 321 322 321 321 321 322 324 324 324 323 323 323 322 323 324 323 324 327 327 326 327 327 328 329 328 325 324 323 323 323 322 321 320 319 319 320 320 322 325 326 327 328 331 334 336 337 338 337
338 339 339 337 334 334 334 333 334 334 333 333 332 331 331 330 330 330 331 331 331 329 329 329 330 330 329 330 328 328 328 329 327 324 321 321 321 321 321 321 320 321 321 321 321 322 322 323 324 324 324 323 322 324 326 326 326 327 328 328 329 329 328 327 325 324 324 324 323 322 319 319 319 319 320 323 325 326 327 330 333 335 337 338 338
336 336 337 334 333 333 332 332 333 333 332 332 331 331 332 331 330 331 333 333 331 330 329 330 330 330 330 330 330 329 329 329 327 323 321 321 321 321 321 320 320 322 321 321 321 321 322 323 325 325 323 322 322 323 325 326 326 327 328 329 330 329 329 329 328 326 326 325 325 325 322 319 319 320 320 321 323 325 325 326 330 333 336 338 339
335 334 334 333 331 330 331 332 332 331 331 331 330 331 332 331 330 332 333 333 330 330 330 330 330 330 330 330 330 329 328 329 327 324 322 321 320 321 321 320 321 323 322 321 321 321 321 323 324 323 323 322 322 323 324 326 327 328 328 329 329 330 329 329 329 328 327 327 327 327 324 321 320 321 321 320 322 324 324 324 326 328 332 336 338
333 332 331 330 330 330 330 331 330 331 332 330 330 332 332 331 331 332 333 331 329 329 329 330 329 328 327 328 328 328 328 328 327 324 322 320 320 320 320 320 322 323 321 321 321 321 321 322 321 321 323 323 321 322 325 327 327 328 328 329 330 331 330 329 329 328 328 327 327 327 326 323 321 322 322 320 320 321 323 323 324 326 328 332 337
332 331 330 331 332 331 329 330 331 332 332 331 330 331 332 331 331 332 331 330 330 330 330 329 328 326 326 327 327 326 327 328 327 325 322 320 320 319 319 320 321 321 321 321 322 321 322 322 322 322 322 323 321 321 323 326 326 325 324 325 328 331 331 330 329 329 328 328 327 327 327 325 323 323 323 321 320 321 322 322 323 326 329 332 335
333 332 332 334 335 333 331 332 333 331 331 330 330 331 332 332 331 330 329 330 330 330 329 327 326 326 327 328 327 327 327 328 327 324 321 320 319 319 320 321 321 321 322 324 324 324 324 325 325 324 324 323 322 321 322 323 323 321 320 321 323 327 331 332 330 329 329 328 328 328 328 327 326 325 325 323 320 320 321 321 322 324 327 330 333
334 333 334 335 336 336 335 334 332 330 330 329 329 331 332 332 331 329 329 330 330 329 327 326 325 326 327 327 326 326 328 329 326 322 320 320 319 319 320 321 321 322 324 326 326 326 326 326 327 326 325 325 323 321 321 321 321 320 320 319 319 321 325 328 329 330 329 329 329 328 328 327 327 327 327 325 322 321 321 321 322 323 324 326 329
334 333 333 334 335 337 337 335 332 329 329 329 329 330 332 332 331 330 330 330 329 328 326 325 325 327 328 328 326 325 327 328 324 321 320 320 319 320 322 322 323 324 326 326 326 326 326 326 326 326 327 326 324 322 322 321 320 320 319 319 319 318 319 321 323 324 325 326 325 325 325 325 325 325 327 327 325 323 321 321 321 322 322 324 325
335 334 332 331 333 334 334 335 333 330 328 329 329 330 331 332 331 330 329 329 328 327 325 324 326 328 327 326 325 325 327 326 322 320 320 320 320 321 323 323 325 326 326 327 326 325 326 326 325 326 326 325 324 324 323 321 320 320 319 318 319 318 318 318 319 319 321 321 321 322 322 323 323 323 326 327 326 324 323 322 321 321 321 321 322
332 331 330 331 333 334 333 335 335 331 329 330 329 329 329 330 329 329 328 327 326 325 325 326 328 327 325 325 326 328 327 324 320 321 321 320 320 322 323 325 326 326 326 325 325 324 324 324 324 325 324 325 326 326 323 320 319 320 319 318 318 318 318 318 318 319 319 320 321 321 322 322 322 322 325 327 327 326 325 324 323 322 322 321 321
327 326 327 330 333 334 334 335 335 333 329 328 328 328 327 326 326 327 327 327 326 327 328 329 328 325 324 324 326 328 328 323 320 321 322 322 323 324 325 325 324 324 324 324 324 323 322 322 322 323 322 323 325 323 320 318 318 319 319 319 318 318 319 319 319 319 319 320 322 322 322 322 322 322 323 325 327 327 327 326 326 325 324 322 320
327 325 328 331 333 334 334 335 334 331 327 326 326 325 325 325 326 326 327 327 327 328 329 328 327 325 324 324 327 329 328 325 323 322 321 321 323 325 325 323 320 320 320 321 321 320 319 319 319 320 320 320 320 318 317 317 317 318 319 319 318 319 319 319 319 319 319 321 323 324 324 324 324 323 324 324 325 327 327 327 327 326 326 324 321
328 326 328 331 332 332 333 333 331 327 325 325 325 324 325 326 326 326 327 327 328 329 329 328 327 326 325 325 327 327 327 325 324 324 323 323 322 322 323 321 319 319 319 319 319 319 318 318 318 317 316 316 315 315 317 319 318 318 318 318 318 319 319 319 319 319 321 323 325 325 325 325 325 325 324 324 324 326 327 327 327 326 326 325 324
329 328 329 330 330 330 331 331 329 326 326 327 327 326 325 326 326 326 326 327 327 328 328 328 328 326 325 325 326 326 325 323 322 323 324 324 322 320 319 319 319 318 318 318 318 318 317 317 316 316 315 315 315 316 317 319 319 318 318 319 319 320 320 320 319 321 324 325 325 325 325 325 325 324 324 324 325 325 326 326 327 327 326 326 326
Wind_Speed
3 4 5 5 7 8 9 10 11 12 12 13 12 13 14 14 14 13 10 9 10 11 12 13 15 19 21 19 18 19 18 18 19 21 21 20 18 18 16 14 14 15 14 14 16 18 20 22 23 23 23 24 26 27 27 25 24 24 26 27 22 20 19 18 17 14 13 14 15 15 17 17 17 22 26 25 22 20 17 17 17 15 15 17 18
3 5 6 6 7 8 9 10 10 11 12 13 13 13 13 12 11 10 8 8 10 11 10 10 11 14 17 15 13 13 13 12 12 12 12 13 13 14 14 13 13 13 13 13 13 15 17 19 21 21 22 23 25 28 29 28 27 28 29 27 24 23 20 17 16 15 13 15 13 10 12 15 16 19 24 24 23 21 19 19 19 19 18 17 17
5 5 7 8 8 8 8 9 10 10 11 12 11 10 8 7 6 5 4 4 5 6 6 5 6 7 9 9 8 8 8 8 9 10 10 12 13 14 14 14 13 12 13 13 12 12 14 16 18 19 19 21 25 27 30 32 31 30 27 25 24 25 23 18 17 17 15 13 10 7 7 9 9 12 16 19 21 21 21 21 21 21 22 21 18
6 6 7 9 9 8 8 9 11 11 9 9 7 6 4 3 2 2 3 3 3 3 4 4 4 4 5 5 6 6 7 7 9 10 12 14 15 15 13 12 13 14 14 14 14 14 14 14 16 17 18 20 24 27 29 32 33 31 27 26 27 24 22 20 19 20 18 12 7 6 6 7 7 8 9 12 16 18 20 21 21 22 24 24 23
7 7 8 9 9 9 9 9 10 10 8 7 7 7 7 7 5 5 5 5 5 4 4 3 3 3 3 3 4 6 8 8 9 11 12 14 15 14 14 13 14 15 16 16 17 17 16 15 15 16 17 19 23 26 28 29 31 31 27 29 31 26 22 20 19 21 22 18 14 9 6 6 6 7 8 8 10 13 15 17 18 20 22 23 26
6 7 8 9 9 9 8 9 10 9 8 9 10 10 10 9 7 7 7 6 5 4 3 2 3 3 3 4 5 6 7 8 8 10 12 13 14 15 17 17 16 17 17 17 17 17 16 15 15 16 17 18 22 25 27 28 29 29 26 27 28 26 24 21 17 18 19 20 24 23 18 13 8 6 6 6 6 9 11 13 15 17 18 20 24
5 6 7 9 9 9 9 9 9 8 9 11 11 11 10 10 9 8 7 5 4 2 1 1 1 2 2 3 4 4 6 7 8 9 11 12 13 14 15 17 18 18 18 17 16 15 15 13 13 15 15 16 20 23 26 27 26 24 23 24 26 27 27 26 21 16 15 18 23 26 27 23 17 12 9 7 6 7 9 11 12 13 14 16 20
7 7 8 9 9 9 9 9 10 10 11 12 12 12 12 11 10 8 7 6 4 3 2 1 1 1 1 1 1 2 4 6 7 8 9 10 12 12 13 14 16 17 17 17 16 15 15 13 12 13 14 14 16 20 22 22 21 20 21 24 27 28 27 29 27 20 17 18 19 22 24 26 25 20 15 12 9 8 8 10 12 13 13 14 15
8 8 9 9 9 9 9 10 11 11 12 12 13 14 14 12 10 8 6 5 4 3 3 2 2 2 2 2 3 3 5 6 6 8 8 9 11 12 12 12 13 14 14 15 15 14 13 13 13 13 13 14 15 17 18 19 18 18 20 22 23 24 26 28 27 23 21 20 18 18 20 23 26 25 21 17 13 11 10 9 11 12 13 15 15
8 8 9 9 9 9 10 11 11 11 11 12 15 15 13 11 8 6 5 4 3 3 4 4 4 4 4 5 4 5 6 6 6 7 8 8 10 11 11 11 11 12 13 12 12 11 10 11 12 13 13 14 15 15 16 17 17 17 19 21 22 24 29 28 25 27 26 22 20 17 18 20 18 17 19 18 16 14 12 11 13 13 11 13 14
9 8 8 8 8 8 10 11 11 11 12 13 15 14 12 9 7 6 5 4 4 4 5 5 5 5 6 7 6 7 8 7 6 7 8 9 10 10 10 11 11 11 11 10 9 9 9 9 10 11 12 12 13 14 15 16 15 15 16 19 21 24 27 26 24 28 29 27 27 24 22 22 17 15 18 18 16 14 11 11 14 16 14 14 13
9 8 7 8 8 8 9 10 11 12 13 13 13 12 10 9 8 6 4 3 3 4 4 5 6 6 7 8 9 9 10 9 7 8 9 9 10 10 10 11 11 11 10 10 10 10 9 8 8 9 9 9 10 11 12 13 13 13 14 14 17 20 22 22 22 25 26 27 30 29 25 22 21 24 24 19 17 17 13 10 13 15 14 15 15
10 8 8 8 8 9 9 10 11 12 12 13 13 12 11 9 7 5 3 1 1 3 4 5 6 7 8 10 10 10 10 9 8 8 9 9 9 10 11 12 13 13 12 12 12 11 10 9 9 9 9 9 9 10 10 10 12 13 13 12 14 15 17 20 22 21 22 25 28 27 22 19 22 29 28 22 18 18 16 13 15 16 14 14 14
10 8 8 7 8 9 9 9 11 11 12 13 13 12 10 8 6 5 3 2 1 2 4 5 5 6 9 9 10 9 10 11 10 9 9 8 9 10 11 11 12 13 14 13 12 12 11 10 10 10 10 9 10 10 9 9 11 13 14 14 15 16 15 18 21 19 20 24 26 24 22 22 26 29 26 22 21 20 18 16 14 15 16 16 15
9 8 8 8 9 10 9 10 11 12 13 13 13 12 11 9 7 6 4 3 2 2 3 4 5 6 8 8 8 8 10 12 12 11 10 8 8 9 10 10 11 12 12 12 12 12 11 11 10 10 10 10 10 10 9 10 11 13 14 15 16 17 16 19 21 22 23 24 24 24 24 26 29 27 22 20 23 23 22 21 17 12 13 13 13
10 9 9 9 10 10 10 11 12 13 14 14 14 13 11 10 8 7 5 4 2 2 4 4 5 6 7 7 7 8 10 11 12 13 13 11 9 9 9 9 9 10 11 11 11 11 11 11 11 10 9 9 9 10 9 9 10 11 13 15 16 16 16 18 21 24 26 26 25 26 28 30 33 31 26 23 23 23 24 24 22 18 13 10 10
11 10 9 9 11 11 11 12 13 14 15 16 15 13 12 10 9 8 6 4 3 3 4 4 5 6 6 7 8 9 10 10 11 13 14 15 14 12 11 9 9 9 9 10 10 10 11 10 10 10 10 11 11 11 10 10 10 10 11 14 16 16 16 18 20 23 26 26 26 29 31 33 34 33 29 24 22 23 25 25 26 26 20 12 10
10 10 9 9 11 11 12 12 13 15 16 17 15 13 12 11 10 8 7 5 4 4 5 6 6 6 7 8 8 9 10 10 11 12 13 14 15 15 13 12 12 11 9 9 9 10 9 9 10 12 14 15 13 12 12 11 11 11 11 13 15 16 18 19 20 22 25 26 27 29 31 32 32 30 27 25 23 23 24 24 26 27 23 17 15
10 10 9 9 11 12 12 13 13 15 17 16 15 13 13 12 11 9 8 6 6 6 6 7 7 8 8 8 9 9 10 10 10 11 13 14 14 15 14 13 14 14 11 9 9 9 9 10 12 15 16 16 14 13 13 13 13 14 14 14 15 16 18 20 20 20 22 23 25 27 27 28 28 26 24 24 24 24 24 24 24 25 24 24 23
10 10 9 10 12 12 13 13 13 16 18 16 14 13 13 12 12 10 9 8 7 7 7 8 8 9 10 9 9 10 10 10 10 11 13 14 14 13 13 13 14 14 12 10 8 8 9 11 13 15 15 15 15 15 15 16 16 17 17 17 17 18 19 22 22 22 22 22 24 25 26 28 29 26 25 25 25 24 25 24 24 24 24 26 27
10 10 10 10 12 12 12 12 13 15 16 14 12 12 12 12 12 10 10 9 9 8 8 9 9 10 10 9 10 10 10 9 9 10 12 13 13 12 12 13 13 13 13 12 10 9 10 11 12 13 14 14 15 16 17 17 17 19 20 20 19 18 20 23 23 24 25 24 25 26 28 31 31 28 25 26 26 25 25 25 24 24 24 25 28
11 11 10 10 11 11 11 12 14 14 13 12 12 12 11 12 11 10 10 10 9 9 9 10 10 10 11 10 10 10 10 9 9 9 11 11 12 12 12 13 14 14 14 14 13 12 12 11 10 11 12 14 16 16 17 17 18 19 20 19 19 18 20 22 22 24 26 25 25 27 30 33 32 29 27 28 28 25 25 25 25 25 26 27 27
10 11 10 10 11 11 10 12 14 14 13 13 13 13 12 11 11 11 11 11 9 9 10 11 11 11 11 10 10 10 10 10 9 10 11 12 12 13 13 13 14 14 14 15 14 13 12 11 11 11 12 14 15 15 16 17 18 19 19 19 20 20 21 22 23 25 25 26 27 27 29 34 34 31 29 29 29 28 26 26 26 26 27 27 26
10 10 8 8 9 9 9 10 12 13 14 15 15 14 14 13 13 12 12 11 10 10 11 12 12 12 12 11 11 10 10 10 11 11 12 12 13 13 14 14 14 14 15 14 13 13 12 12 12 13 13 14 15 15 16 18 18 18 19 20 20 20 21 24 27 27 27 27 27 26 29 34 35 33 29 27 29 30 27 27 27 28 29 28 26
10 9 8 8 8 8 9 10 11 13 15 16 16 16 16 16 15 13 12 11 11 11 11 12 12 13 13 12 11 10 10 11 11 12 13 13 14 14 15 14 14 15 15 15 13 12 12 12 13 14 15 17 17 17 18 18 18 18 19 19 21 21 22 26 30 32 31 30 27 27 30 32 33 33 30 26 28 31 32 32 32 31 30 29 28
12 11 9 8 8 8 9 10 11 14 16 17 18 18 18 18 17 15 13 13 13 12 11 12 12 13 14 13 12 10 10 11 12 13 13 14 14 14 14 14 14 15 16 16 15 13 12 12 13 14 16 18 19 19 19 18 18 19 20 19 21 23 24 25 29 31 30 29 28 29 30 30 31 33 30 28 29 30 32 34 34 33 31 30 29
11 10 9 9 8 8 10 11 12 15 17 18 19 19 19 19 18 17 16 15 14 13 12 13 13 14 14 13 12 11 10 11 12 13 14 14 13 13 13 14 14 15 16 16 16 16 14 14 14 15 17 18 19 20 18 17 19 20 20 22 24 26 26 26 28 29 28 27 27 29 30 29 30 31 30 31 31 31 33 35 34 34 33 30 28
10 10 10 10 9 9 9 11 12 15 18 19 19 20 20 19 19 18 17 16 14 13 13 14 14 15 14 13 12 12 11 12 13 13 14 14 13 14 14 14 14 15 16 16 16 17 17 17 18 19 19 17 17 18 17 17 19 19 20 23 25 26 26 26 28 29 28 28 27 27 28 28 28 31 32 33 31 30 32 33 32 32 30 27 26
12 11 11 10 10 9 10 12 13 15 17 18 19 20 20 20 20 19 17 16 14 13 14 15 15 15 14 13 12 13 13 13 13 13 14 14 14 15 15 15 14 15 16 16 16 16 18 19 19 20 19 17 16 16 15 16 17 18 20 21 22 24 26 25 28 31 30 29 28 28 27 27 28 30 32 33 32 30 30 30 30 33 32 28 27
13 12 11 10 10 10 11 12 12 14 17 17 18 20 21 21 20 19 18 16 14 14 14 15 16 15 14 13 13 13 13 12 12 13 13 13 14 15 15 15 15 15 16 15 15 16 17 18 19 18 18 17 16 14 13 15 15 16 19 20 20 24 25 25 28 31 30 29 29 28 28 27 28 30 32 34 34 34 34 34 34 35 34 31 29
14 13 11 10 9 9 11 12 14 16 18 19 20 21 22 21 20 19 18 15 13 14 15 15 16 15 14 14 13 13 12 12 12 13 12 13 14 15 15 15 15 15 15 15 15 17 17 18 18 17 17 16 14 11 12 15 14 14 18 20 21 22 22 24 27 28 28 28 28 26 24 25 26 27 29 32 35 36 36 38 39 37 35 33 30
13 12 11 11 11 10 12 13 15 18 21 22 22 22 23 23 21 19 17 14 14 15 16 16 16 15 15 14 13 12 12 12 12 12 12 13 15 15 15 14 14 14 15 15 16 16 17 17 17 17 17 15 13 11 13 14 14 15 17 20 22 20 19 22 24 25 27 29 29 27 20 17 21 23 25 27 31 35 37 39 41 42 41 39 36
13 13 12 12 12 12 14 16 18 21 24 25 25 24 24 23 21 18 14 14 15 16 17 17 17 16 15 15 14 12 12 12 12 12 12 14 15 15 15 14 14 14 15 15 16 15 15 15 16 17 17 16 14 13 14 14 14 16 18 20 21 20 19 20 20 22 26 28 28 29 26 20 17 19 23 25 27 29 33 37 40 43 45 45 44
12 13 12 11 11 12 14 17 22 25 26 26 25 24 24 22 19 16 14 13 15 17 18 19 18 17 16 15 15 14 13 13 12 11 12 14 15 15 14 13 13 14 15 16 16 14 13 14 15 16 17 17 17 16 14 13 14 16 19 20 19 19 19 20 20 21 25 26 27 27 27 25 23 20 20 22 24 26 28 31 36 42 45 45 46
12 12 11 10 11 11 12 17 24 26 25 25 25 25 25 23 19 16 15 14 15 17 19 19 19 19 18 17 17 15 14 12 11 11 13 14 15 15 14 13 13 13 15 16 16 14 13 13 14 15 17 17 17 16 13 13 14 16 18 19 18 18 19 19 20 21 23 25 25 24 24 24 22 20 21 21 23 26 27 27 30 37 40 38 39
12 12 12 13 16 18 20 23 25 25 24 25 26 26 25 23 20 18 17 16 16 17 18 20 19 19 18 17 16 14 13 11 11 11 12 13 14 14 13 12 12 13 14 15 14 13 13 14 14 15 16 16 16 14 11 11 13 15 18 18 17 17 19 19 19 20 21 22 22 21 22 24 22 21 24 24 21 21 26 27 27 32 35 34 34
12 13 14 19 23 24 25 25 24 24 25 27 27 27 26 23 21 19 18 17 17 18 19 20 19 17 16 15 14 12 11 11 10 11 12 12 13 12 12 11 11 12 13 14 14 15 15 15 15 15 15 15 16 13 9 9 11 13 16 18 17 18 19 19 19 20 21 21 22 22 23 25 26 27 28 29 25 19 19 25 28 31 34 35 35
10 11 12 17 22 22 22 22 22 23 26 27 28 27 25 23 21 20 18 16 16 18 20 20 19 17 16 14 13 12 11 10 10 11 12 12 12 12 10 10 11 12 13 14 15 16 17 16 15 15 14 14 15 12 8 8 10 12 15 17 17 18 20 20 21 22 21 21 21 22 23 25 27 29 29 29 28 24 17 16 23 30 32 32 33
11 12 14 18 20 20 20 20 22 24 26 27 27 27 24 22 21 20 17 15 17 20 21 20 19 17 15 14 13 12 12 11 11 11 12 12 12 10 9 9 10 11 13 15 16 17 17 16 15 15 14 12 13 12 9 8 10 12 14 16 17 17 19 21 22 23 23 22 22 23 24 25 26 27 28 29 29 27 25 19 14 20 28 31 33
11 13 16 18 18 19 19 21 25 29 27 25 25 24 22 22 21 19 17 17 19 21 20 18 16 14 12 12 13 13 12 12 11 11 12 11 10 9 8 9 10 10 12 15 15 16 16 15 14 14 13 10 10 11 10 10 11 13 14 16 17 16 17 19 21 22 22 23 24 23 23 25 26 25 27 29 29 27 27 26 22 16 14 22 30
11 13 16 17 18 20 23 26 29 28 24 22 23 22 22 22 21 19 20 22 21 20 18 16 13 11 10 11 12 13 13 12 11 11 11 10 8 7 8 10 10 10 12 14 15 15 15 15 15 14 12 9 8 9 10 9 11 12 13 15 17 17 15 16 19 20 20 22 23 23 22 22 24 25 26 29 29 28 28 30 28 23 17 13 17
9 13 17 18 17 20 25 27 25 22 19 19 21 22 21 20 20 21 24 24 22 19 16 12 10 10 10 11 12 14 14 13 12 12 11 9 7 7 9 10 10 10 12 14 15 15 15 15 15 15 13 10 7 8 9 9 10 12 13 13 15 16 15 14 16 17 18 19 21 22 22 20 21 23 24 27 30 29 28 31 31 24 17 11 9
11 13 15 15 14 18 22 18 14 14 15 16 19 21 20 19 20 24 25 23 20 18 13 10 9 10 11 12 13 14 15 14 12 11 10 8 7 7 9 9 9 10 11 12 13 14 14 13 14 14 13 11 8 8 8 9 9 11 13 14 14 14 14 14 14 14 15 18 20 22 22 20 20 20 21 24 29 30 29 30 31 28 22 13 7
10 9 8 9 11 13 12 8 7 10 13 15 18 20 18 19 22 24 22 20 18 15 11 10 10 11 12 14 14 14 15 14 11 10 9 8 7 8 8 8 9 9 10 10 11 11 12 12 12 13 14 12 11 9 7 8 8 10 12 14 14 13 13 13 14 14 15 18 20 21 21 19 18 19 19 20 24 27 29 29 28 29 28 23 14
5 5 3 5 8 9 7 7 9 11 11 14 18 19 17 19 21 21 18 17 16 13 11 10 10 11 14 15 15 15 14 13 10 9 9 8 7 7 8 8 8 8 8 8 10 10 10 11 11 12 13 13 13 11 9 9 8 8 10 13 13 13 13 13 14 14 14 16 18 18 17 16 15 16 16 16 19 23 26 28 28 28 29 29 26
4 4 4 5 7 7 8 8 9 11 12 15 18 18 17 18 18 16 15 15 14 12 11 10 10 11 14 15 16 15 13 12 11 10 10 8 8 7 7 7 6 6 6 6 8 9 9 10 11 11 12 14 14 11 11 12 10 8 10 11 13 13 13 13 14 15 15 15 15 15 14 13 13 14 14 14 15 18 23 26 28 28 28 28 28
5 5 6 6 6 8 10 10 10 12 14 15 16 17 17 16 15 13 13 13 12 10 9 9 9 10 12 14 15 14 12 12 12 12 10 9 8 7 5 4 3 4 4 5 6 7 8 9 10 11 13 14 12 10 12 16 14 12 11 12 12 14 14 13 14 15 15 15 14 13 12 11 12 13 13 12 12 15 19 23 25 26 27 26 25
6 7 7 7 8 9 11 10 9 9 11 12 13 14 14 13 12 11 11 11 10 10 9 8 7 7 8 11 13 12 11 13 14 13 11 9 8 5 2 1 1 2 3 3 4 5 6 8 9 10 12 13 11 10 14 18 17 15 15 13 13 13 14 13 13 14 15 15 15 13 12 13 14 15 14 13 13 14 15 18 20 23 25 25 24
5 6 7 7 8 9 9 7 5 6 8 10 10 9 8 8 9 9 10 9 9 8 7 5 4 4 6 7 8 8 10 11 12 12 12 10 7 3 3 3 2 0 1 2 3 4 6 7 7 8 10 12 12 14 17 18 15 14 15 14 13 12 12 12 12 12 13 15 14 13 13 13 15 17 17 16 17 16 15 16 18 19 22 24 24
4 4 4 5 5 5 5 4 3 4 5 5 5 6 6 6 7 8 9 9 8 6 5 4 3 3 3 4 4 6 8 10 11 12 10 7 4 3 4 5 4 3 2 3 4 6 8 9 6 6 9 11 12 16 18 17 14 12 12 12 11 10 10 11 11 10 11 12 12 11 12 12 13 14 15 16 17 18 17 16 16 17 18 20 21
1 1 2 2 3 2 2 2 2 3 3 3 3 4 5 6 7 8 8 8 7 5 4 3 2 2 3 3 3 5 7 9 12 13 9 6 7 8 7 6 6 5 5 5 7 8 10 11 10 8 9 11 13 15 16 16 14 10 8 7 8 8 8 9 9 10 9 10 12 12 12 13 13 13 13 14 14 16 17 16 16 16 16 16 16
Wind_Direction
112 132 152 162 180 192 197 203 211 219 228 234 236 240 242 245 249 249 246 244 247 249 251 255 261 269 271 269 269 273 275 274 274 275 275 276 277 277 278 279 281 281 281 277 270 268 266 266 267 267 265 262 259 257 254 251 246 244 249 249 245 243 241 240 241 240 245 250 254 257 258 258 255 255 257 257 256 254 251 250 248 246 245 247 251
135 148 152 157 167 177 189 197 203 210 223 228 228 235 241 248 255 255 252 250 251 249 245 250 259 268 274 278 280 283 286 286 288 288 280 276 278 278 279 280 280 281 281 278 273 267 265 264 265 268 268 262 258 255 253 251 247 247 249 245 242 247 245 239 233 228 234 242 248 259 263 259 252 254 257 253 252 252 249 248 248 247 246 244 245
170 164 161 168 167 170 182 191 199 205 216 225 227 233 243 253 260 257 245 238 240 234 222 226 245 259 270 283 291 288 288 291 290 289 285 284 284 284 283 281 280 282 281 280 277 272 269 266 266 268 269 265 259 253 252 253 251 249 247 240 237 241 243 239 224 220 230 237 241 251 261 265 254 251 255 248 245 247 246 246 245 246 247 245 241
171 169 167 171 173 178 182 187 197 201 208 218 217 210 197 179 174 166 171 169 166 172 176 189 211 229 247 272 289 287 284 283 281 282 288 293 294 291 287 281 282 284 282 281 279 278 276 272 271 270 269 267 263 258 255 255 255 250 246 240 233 229 233 234 224 222 228 224 221 241 251 261 257 250 259 251 241 242 242 243 243 243 246 246 243
171 170 169 174 181 186 186 191 196 198 198 191 173 159 149 141 133 126 128 125 126 133 143 162 177 195 226 261 277 282 286 285 288 294 299 302 302 298 292 287 286 284 282 280 279 279 277 274 275 275 274 272 268 264 261 258 257 254 248 238 230 227 230 233 228 223 224 219 216 223 234 247 252 250 264 259 238 238 241 239 239 240 242 243 244
176 171 169 175 179 178 180 186 189 189 181 164 153 148 146 141 129 120 119 116 113 114 118 139 162 182 201 218 234 257 275 280 288 299 303 302 301 298 296 295 293 291 289 285 281 279 277 276 277 278 278 275 270 266 262 258 258 257 248 235 230 235 239 241 235 220 221 226 226 229 236 244 254 249 253 263 246 239 242 240 237 237 238 239 243
178 178 176 176 176 174 177 179 178 174 165 158 156 154 149 140 132 130 130 130 126 114 82 90 154 181 193 207 226 243 261 274 284 293 296 298 299 300 300 300 299 299 296 290 285 280 279 279 281 281 278 274 271 266 261 258 258 255 246 238 240 243 242 243 238 220 219 231 231 233 238 243 249 249 248 263 268 251 243 246 247 242 239 237 240
180 183 187 185 180 178 178 174 168 163 161 162 160 158 153 146 144 146 146 142 133 124 114 110 119 123 146 198 249 256 270 283 290 295 298 301 304 305 305 305 305 304 298 292 286 280 280 281 283 285 281 277 273 266 262 260 259 255 248 244 243 241 237 237 236 225 220 230 233 232 236 241 244 247 250 253 262 269 260 256 259 257 250 243 241
191 190 191 189 182 179 175 169 164 159 161 167 165 160 156 151 151 151 145 134 116 98 86 72 56 41 23 7 352 324 312 306 304 306 307 308 308 308 308 308 310 312 305 295 288 283 282 284 286 287 286 287 282 268 263 265 263 256 250 247 243 237 234 233 232 230 228 233 235 227 228 237 241 242 244 244 246 258 264 263 264 262 256 249 243
202 200 195 188 178 177 177 170 166 162 163 170 168 163 159 156 157 160 149 121 88 59 44 30 17 12 4 360 353 336 325 319 311 310 313 316 314 312 313 312 314 319 318 308 299 294 293 292 292 291 289 291 290 278 268 272 272 262 255 252 246 242 242 241 238 240 239 239 242 232 222 230 237 237 236 235 237 244 252 262 265 263 260 255 245
202 202 196 187 175 173 176 172 170 171 170 170 168 164 161 161 163 162 141 106 77 52 34 15 3 0 359 356 349 336 330 325 316 312 317 321 318 315 316 316 317 321 323 321 316 313 310 305 300 295 292 291 294 291 282 282 281 271 264 259 251 247 248 246 239 240 243 243 246 242 230 229 233 236 234 228 228 235 242 254 259 258 260 260 253
198 198 193 188 181 176 177 176 174 177 176 174 171 168 168 169 167 157 133 104 67 41 19 0 352 347 348 348 343 335 331 326 315 311 316 316 314 315 314 314 316 319 323 325 324 323 319 314 309 302 298 295 295 298 293 288 282 275 270 262 254 246 240 238 234 235 242 246 245 242 234 231 233 237 238 231 226 234 240 250 257 257 258 260 256
197 196 194 191 189 184 180 178 178 180 181 180 179 179 180 179 174 169 164 170 5 7 356 349 343 337 338 339 337 333 329 325 313 309 314 314 314 315 316 316 316 318 320 321 322 324 322 315 313 308 303 301 295 296 298 289 279 276 274 268 264 252 235 239 244 239 239 245 244 241 235 233 236 237 237 234 231 236 240 250 257 255 257 261 258
194 193 195 193 193 190 183 180 183 187 187 186 187 188 189 188 187 194 212 235 301 341 344 344 333 328 333 333 332 330 328 325 319 317 318 318 320 318 318 318 315 315 315 316 318 321 321 317 314 311 306 306 301 297 295 286 279 277 275 269 270 266 247 245 254 250 244 245 244 244 240 238 240 238 235 232 233 237 240 243 251 253 253 257 259
190 192 197 197 194 192 187 186 189 191 191 190 192 194 195 197 201 208 217 232 279 324 334 329 319 322 326 326 327 326 325 325 323 325 325 323 322 318 316 316 314 313 311 312 315 315 316 316 314 314 311 310 308 304 300 293 288 285 281 275 272 270 259 250 251 250 250 250 249 249 248 245 243 240 234 231 235 239 240 240 243 250 252 253 256
189 192 196 195 193 192 190 189 192 193 193 195 198 199 203 209 214 215 222 235 267 310 318 310 305 315 320 319 322 322 323 324 322 324 326 325 324 319 316 315 314 315 312 310 313 313 314 315 314 314 316 317 319 319 315 306 300 294 287 283 278 273 265 255 251 250 251 253 253 252 251 250 249 245 240 239 239 239 239 238 239 244 252 255 253
187 189 191 191 190 191 190 190 191 193 196 202 204 207 214 220 220 218 224 235 263 296 302 297 295 304 312 314 318 320 320 321 319 320 323 323 323 323 322 322 321 319 315 312 312 312 313 313 312 317 324 329 331 331 327 320 313 303 291 288 284 278 271 265 261 260 258 256 254 252 250 250 251 248 244 241 239 240 239 237 239 243 247 252 255
182 182 185 188 189 190 188 189 192 197 204 208 209 213 219 221 220 220 226 238 261 286 295 296 292 293 304 311 316 318 315 317 321 322 322 319 316 316 318 323 330 326 318 314 313 313 312 310 314 321 327 331 331 330 328 323 318 309 298 292 286 280 276 272 268 264 263 260 255 253 251 250 249 248 245 239 233 235 238 236 238 241 241 240 247
178 181 184 188 191 191 187 187 192 201 209 211 211 216 218 220 222 224 231 245 263 281 290 296 293 289 297 305 312 315 312 316 323 324 322 319 314 310 309 315 325 328 323 315 311 312 310 309 316 321 324 327 326 325 324 322 317 312 306 298 291 285 280 276 271 265 263 260 255 252 249 246 246 246 244 240 232 229 233 235 236 236 234 234 237
181 183 184 187 191 191 188 188 191 203 210 209 210 215 215 220 225 230 239 251 264 276 283 290 290 287 290 299 308 312 311 313 321 325 326 326 321 312 307 308 315 323 325 318 310 308 308 309 313 316 317 319 320 319 319 319 318 316 312 306 300 295 288 283 278 271 266 262 258 255 250 247 247 244 240 240 236 228 227 231 234 233 232 231 230
180 180 183 186 188 187 185 187 192 203 209 206 209 214 215 220 226 232 243 251 261 270 277 284 286 282 283 292 302 307 310 311 316 324 330 333 330 320 311 307 306 312 319 318 314 309 308 308 308 310 312 314 315 318 319 321 321 321 318 313 308 302 295 291 287 282 275 268 263 258 255 253 250 244 238 238 237 230 227 230 232 232 231 229 226
179 181 184 184 183 181 180 185 193 202 206 204 210 216 218 222 227 234 242 248 256 265 273 280 279 274 275 285 295 302 307 307 308 319 328 331 333 328 318 310 306 307 309 311 312 311 309 308 304 304 310 314 315 318 321 321 322 323 323 322 318 312 305 299 294 289 283 275 269 263 260 259 253 245 240 238 236 232 230 231 230 229 231 231 227
181 182 183 179 176 176 177 184 193 202 205 206 213 219 222 226 230 236 243 248 254 262 271 276 272 265 268 280 291 297 301 299 300 309 316 320 323 325 322 317 312 310 307 306 306 305 306 307 305 307 312 316 317 318 320 320 319 321 323 323 321 317 313 309 301 295 288 280 273 266 262 262 257 247 241 238 235 234 233 232 231 230 233 234 229
180 182 177 169 167 169 174 182 190 201 207 208 215 222 226 231 235 238 244 249 253 260 268 272 267 259 263 278 289 293 295 293 293 298 304 309 311 314 317 317 315 312 310 309 306 302 304 308 311 315 318 319 318 317 318 316 315 318 319 319 319 316 313 312 307 302 295 285 275 268 268 267 259 249 242 236 233 234 234 232 233 235 234 233 230
178 177 168 164 167 172 178 183 190 201 206 208 217 225 230 236 239 240 244 249 252 259 265 267 264 258 261 275 286 289 291 289 287 292 298 301 304 308 311 314 314 312 310 311 310 307 309 311 312 317 320 320 321 321 318 313 310 316 318 316 318 315 311 310 308 304 300 292 281 273 273 270 259 249 244 237 232 232 234 233 235 236 234 232 231
177 175 170 169 174 176 180 186 194 202 205 209 219 227 233 238 241 242 244 248 252 258 262 262 262 259 262 273 282 286 289 288 286 291 296 300 304 308 311 313 312 311 310 310 310 309 311 312 311 312 313 315 319 321 317 312 312 318 319 317 318 314 308 304 302 299 296 292 284 277 273 267 257 250 244 239 236 232 231 232 234 234 231 231 231
175 172 169 169 175 180 183 189 197 203 206 211 220 228 234 239 243 244 245 246 252 257 259 260 260 259 263 270 278 284 288 289 288 293 298 302 307 310 313 313 311 311 310 308 308 306 304 305 303 303 305 306 309 314 315 315 317 321 321 319 318 313 308 305 302 298 295 291 286 279 273 265 258 252 244 241 240 234 232 233 232 232 231 231 230
176 175 174 174 179 182 184 192 199 204 207 214 223 229 235 240 243 244 244 243 249 254 256 259 258 258 263 269 277 284 289 290 291 295 299 303 307 311 313 311 310 309 308 308 309 305 301 299 298 299 302 302 302 307 315 319 318 321 323 321 319 315 310 308 306 304 300 295 289 281 273 266 259 253 246 244 241 237 236 235 231 229 229 228 228
182 182 181 180 181 180 185 194 200 203 208 215 224 229 234 240 242 242 240 239 245 252 255 257 256 257 264 270 276 284 290 294 296 299 303 305 306 309 310 309 308 308 309 312 312 309 306 305 305 303 301 299 297 302 315 322 318 320 325 324 321 318 315 312 311 310 307 301 295 285 274 266 259 255 250 247 244 240 237 234 230 230 229 226 226
183 183 185 185 183 182 188 194 198 203 207 214 223 228 232 237 239 239 237 237 242 248 252 253 254 258 265 271 277 285 292 297 301 305 307 307 307 308 307 306 308 311 315 316 315 314 314 313 312 308 301 296 293 297 315 324 318 318 326 327 323 321 319 317 317 318 316 313 305 291 276 267 262 258 254 251 248 245 240 238 236 233 229 226 226
185 184 184 183 181 184 191 196 201 205 210 216 221 226 231 234 235 236 236 237 240 244 248 250 253 260 266 270 276 285 293 297 302 306 310 312 313 310 306 305 310 316 320 319 318 318 318 318 317 312 304 296 291 296 317 325 320 320 327 329 326 324 321 320 323 325 324 324 322 309 284 266 261 259 256 253 251 248 244 242 240 235 231 229 227
185 182 180 181 185 190 195 200 204 207 212 219 221 225 229 231 233 236 238 238 238 242 247 249 254 262 267 270 276 285 295 299 301 303 310 318 320 315 310 309 313 320 322 320 319 320 320 324 326 321 311 299 289 298 318 324 322 324 327 328 330 330 326 324 328 332 332 334 338 337 322 285 266 262 258 255 253 250 246 244 242 239 238 237 232
184 183 184 185 188 193 198 202 207 210 216 222 223 224 227 229 233 238 239 238 238 243 248 250 255 261 265 271 277 284 295 301 300 301 310 321 323 319 316 315 316 320 321 318 317 318 322 328 330 329 322 307 294 300 316 321 322 324 324 324 330 336 334 329 333 338 341 343 344 346 348 339 314 291 273 262 256 251 248 245 244 242 240 240 237
188 187 187 186 189 196 201 207 212 216 221 224 225 226 228 230 233 237 238 238 240 244 248 252 256 261 265 271 276 282 294 301 301 305 315 322 322 318 317 319 319 319 319 315 312 313 320 326 330 332 330 319 307 305 313 319 321 321 320 319 325 336 337 335 339 342 343 348 351 349 349 349 345 333 312 288 272 260 250 243 241 240 239 238 237
190 190 186 186 190 195 202 211 217 220 223 224 225 226 229 230 232 235 236 237 242 246 250 253 257 261 266 271 275 282 291 298 303 310 318 321 320 317 317 320 320 319 318 315 310 309 315 321 327 330 331 328 319 313 314 320 320 316 316 317 320 331 338 338 340 345 347 351 355 352 348 346 341 338 337 321 295 275 259 245 235 235 235 234 234
190 186 185 190 197 203 209 215 219 221 222 224 225 225 227 228 230 234 235 237 243 248 253 255 257 262 268 273 278 284 288 293 302 309 313 316 317 317 319 320 320 322 323 319 313 312 314 316 320 325 328 329 326 321 317 321 322 318 317 318 318 324 334 338 339 348 353 352 352 350 348 348 342 340 346 343 322 292 270 255 242 237 234 231 230
188 187 190 198 204 210 214 218 221 223 223 224 224 224 224 225 228 233 236 238 243 249 254 256 258 262 268 274 280 283 283 287 296 301 303 309 315 316 317 320 324 326 327 323 316 313 312 312 315 320 324 328 328 325 317 315 320 321 320 321 319 318 325 331 335 343 349 348 350 354 353 351 348 348 352 351 346 328 288 261 250 244 240 234 231
184 187 195 205 211 216 220 223 225 226 227 225 224 223 222 222 226 233 236 237 242 250 256 259 263 268 271 274 277 278 277 280 287 292 295 301 310 314 314 319 325 327 327 325 321 316 312 310 311 316 322 327 326 320 310 305 313 320 321 322 321 318 319 323 328 333 338 341 347 353 355 353 350 351 354 354 355 354 334 289 260 249 243 239 235
191 195 201 209 215 220 224 226 227 229 230 226 223 222 219 219 226 233 234 235 243 252 259 264 273 280 279 274 271 270 269 272 278 285 288 295 306 310 310 316 323 325 327 329 327 324 320 316 314 317 323 331 329 318 305 299 305 313 317 319 320 318 317 321 326 328 329 334 342 349 353 355 353 353 356 357 360 3 2 349 311 264 245 240 238
197 206 211 215 219 221 223 225 229 232 231 225 221 219 216 218 226 232 235 239 247 255 264 272 282 287 280 269 263 263 265 268 272 279 284 292 302 304 303 314 319 319 323 328 329 328 326 322 322 324 328 338 339 326 313 305 306 310 310 312 314 314 315 320 326 328 327 329 336 343 350 357 357 356 357 360 2 5 5 5 2 340 285 253 244
201 212 217 221 224 226 228 231 234 234 231 223 217 214 215 219 225 232 239 245 250 258 268 278 286 287 279 269 261 259 261 264 267 272 278 286 294 295 300 310 313 313 320 326 329 327 326 327 330 332 332 341 350 343 331 322 318 316 312 309 308 309 313 318 321 324 327 329 333 336 341 350 357 357 358 0 1 3 7 10 11 2 340 300 253
210 217 221 222 224 229 234 238 238 235 229 220 214 213 216 219 224 234 243 247 252 260 271 280 284 282 281 275 267 261 260 261 263 266 271 278 285 291 302 308 306 309 319 324 328 329 328 329 333 336 336 341 352 354 346 339 334 333 331 325 317 313 315 319 318 322 327 329 332 335 336 340 349 354 359 2 2 3 7 12 14 7 351 330 274
210 218 221 219 221 229 234 235 231 226 224 217 213 215 218 220 227 239 246 249 254 260 268 274 273 272 277 279 275 269 263 260 259 261 264 270 280 293 303 304 303 311 320 322 326 331 328 325 329 333 336 340 345 351 353 348 343 344 344 343 337 328 321 319 316 316 322 327 331 335 337 338 342 347 354 3 6 8 8 9 14 16 12 3 313
219 226 225 221 230 238 239 238 235 230 227 222 218 218 219 223 234 243 247 249 253 256 258 262 265 268 273 277 282 279 268 256 250 254 256 259 275 291 296 299 304 314 320 320 322 327 327 324 325 327 331 337 340 343 350 351 346 344 345 347 348 344 335 327 322 317 320 327 331 335 338 341 343 346 352 1 8 13 14 12 14 19 23 27 23
250 264 265 246 251 260 263 259 254 246 237 229 225 220 220 229 239 245 246 247 249 247 247 257 267 273 275 278 287 287 269 246 235 238 240 247 267 283 288 296 307 315 318 319 321 323 324 324 325 324 326 334 339 340 342 346 345 343 343 345 348 351 349 343 338 337 337 335 336 337 339 344 351 355 358 2 9 17 21 19 16 18 24 29 31
265 269 272 264 262 265 262 255 251 247 240 234 230 224 223 231 241 244 244 245 242 239 247 263 273 278 282 287 293 287 262 234 230 232 231 241 262 272 279 292 302 310 315 317 320 323 325 327 329 328 327 333 341 343 340 339 340 341 342 344 346 352 356 353 351 353 353 349 346 346 346 350 2 9 10 8 8 17 26 26 22 22 25 28 28
259 264 266 256 248 251 249 243 239 238 235 231 229 228 229 235 241 243 242 243 243 246 258 268 271 280 293 303 301 284 245 215 218 226 227 238 254 262 272 288 295 307 315 317 321 329 334 334 334 334 333 335 343 349 343 339 339 340 342 345 348 351 356 359 359 358 359 357 354 354 358 4 14 21 22 18 13 16 25 29 28 26 28 30 32
270 271 262 245 237 241 242 239 234 232 230 227 227 231 233 236 236 235 235 241 248 254 256 258 267 287 309 319 310 281 235 208 210 221 229 238 248 249 240 230 270 304 318 326 332 339 342 341 339 340 339 338 343 352 349 342 338 336 336 339 347 352 357 3 4 0 359 1 3 7 14 18 22 27 29 28 26 23 25 29 30 29 29 30 33
272 267 256 245 244 249 249 245 235 227 226 226 226 227 226 222 220 222 228 236 242 244 244 248 270 296 318 327 311 267 228 209 209 219 229 234 234 210 163 168 179 217 327 353 2 3 3 359 352 352 352 347 344 346 345 340 334 331 331 334 340 348 354 360 5 5 5 5 6 11 15 16 17 22 24 25 28 29 28 30 32 32 32 30 31
272 271 264 260 263 267 262 247 230 228 228 222 221 224 218 212 215 220 225 228 226 226 230 237 255 289 315 328 305 250 230 220 218 221 221 211 184 151 162 165 143 107 62 39 40 35 30 29 29 27 24 16 1 350 346 343 337 332 334 338 339 344 350 353 1 12 16 10 4 5 10 10 10 14 17 18 24 29 30 30 33 35 37 36 34
305 306 302 291 283 278 266 247 235 238 232 220 220 221 211 208 214 217 217 219 218 215 219 224 232 268 288 301 286 253 242 235 233 231 217 172 128 114 118 123 115 101 80 61 58 52 44 42 45 45 37 26 14 1 354 351 349 348 358 7 6 6 4 2 12 27 29 16 6 4 9 10 9 12 13 11 17 28 33 32 32 36 39 39 38